sat.trackr.live / text

‹ back to catalog

STARLINK-34618

NORAD 64770 · 2025-147R

PAYLOAD ACTIVE UNKNOWN

§ Identity

Operator
Country
US
Launch date
2025-07-08
Launch site
AFETR
Launch vehicle
Mass (kg)
RCS (m²)

Purposes: comms

External: N2YO · Heavens-Above · Gunter

§ Orbital elements

Epoch: 2026-09-20T21:44:14.581248Z

Period
93.85 min
Inclination
53.1603°
Eccentricity
0.0000853
Mean motion
15.34418886 rev/d
Perigee alt
462.1 km
Apogee alt
463.2 km
Semi-major
6,840.8 km
B*
4.9152e-4
RAAN
51.4939°
Arg perigee
87.8090°
Mean anomaly
272.3010°
Rev number
6,863

§ Raw data

STARLINK-346181 64770U 25147R   26263.90572432  .00016277  00000+0  49152-3 0  99902 64770  53.1603  51.4939 0000853  87.8090 272.3010 15.34418886 68639

JSON: /api/v1/satellites/64770 · /tle

For live sub-satellite position, see the globe view (requires WebGL).

§ Visibility from observer

Set your observer location to see the next 7 days of passes ≥ 10°. The values pass through the URL so the page stays shareable.

No JS? Fill the form by hand. The geolocation button needs JavaScript.